ROMMA est une association bénévole à but non lucratif. Votre soutien est indispensable : ADHERER à ROMMA ou FAIRE un DON

Recoubeau - (26, Drôme)

Diois (510 m)   Longitude: 5° 24' E   Latitude: 44° 39' N Station partenaire n°64
 

Détail journalier du     <<     >>

Température Precipitation Humidité Pression Vent Dir Rafale Dir. rafale
Heure (°C) (mm) (%) (hPa) (km/h) (km/h)
01:00 -1.408810032S8SE
02:00 -1.908910031S6E
03:00 -2.309010031S6SSE
04:00 -3.009010031S6SSE
05:00 -3.409110021S5S
06:00 -3.609210031S5S
07:00 -4.1092100305S
08:00 -4.3093100303S
09:00 0.4093100303SSO
10:00 4.40.27410031ESE6SE
11:00 6.306310031N8N
12:00 8.405410031N8N
13:00 11.604610032N11N
14:00 14.403210025N16E
15:00 15.803010018ESE26SSE
16:00 16.203010018S31SSO
17:00 15.3032100113S31S
18:00 15.4030100112SE26S
19:00 14.2037100114S27S
20:00 12.5047100112S27S
21:00 11.105510029S18SSO
22:00 9.406710033SE10E
23:00 6.107710031SSE8SSE
minuit 4.3085100400

Graphique du 05-04-2019

 

Serveur OMMA